Starlink 1669

operational
NORAD ID: 47624 Int'l Des: 2021-012 Owner: SPXS Country: US Constellation: starlink
LEOCIRCULAR

About Starlink 1669

Description loading...

Live Position

Loading 3D Globe...

Upcoming Passes

Altitude History

Altitude vs Time

uPlot chart will show altitude changes over time

Two-Line Element Set

1 47624U 21012E 25347.00009259 .00143604 00000-0 28739-2 0 9994
2 47624 53.0449 53.4122 0004366 194.2272 98.7252 15.45770756 5907
Epoch: Dec 13, 2025 • Age: 14 hours

Current Status

Altitude 444.2 km
Velocity 7.64 km/s
Sub-Earth Point -44.35°S, 71.2°E
Launch Date Feb 16, 2021
Age 4.8 years
Type internet

Technical Details

Classification Payload
Mass 260.00 kg
Dry Mass 248.00 kg
Total Mass 260.00 kg
Length 0.20 m
Diameter 2.80 m
Span 9.00 m
Shape Box + pan
Manufacturer SPXS
Bus Type Starlink
Phase Status In Orbit
Owner/State SPXS/US

Large Constellations

Loading constellations...